When you browse on this site, cookies collect data to enhance your experience and personalize the content and advertising you see.
Visit our Privacy Policy to learn more. By continuing to use the site, you agree to this use of cookies and data.

Tiempo cada hora Camopi

Hoy, 18 Septiembre, Viernes

Tiempo Temperatura Precipitaciones Viento Presión Humedad
00:00 +24°C° 0 mm 1 mps 749 mmHg 95%
01:00 +24°C° 0 mm 1 mps 749 mmHg 96%
02:00 +24°C° 0 mm 1 mps 748 mmHg 97%
03:00 +24°C° 0 mm 1 mps 748 mmHg 99%
04:00 +24°C° 0 mm 1 mps 748 mmHg 99%
05:00 +23°C° 0 mm 1 mps 748 mmHg 99%
06:00 +21°C° 0 mm 0 mps 749 mmHg 99%
07:00 +25°C° 0 mm 1 mps 749 mmHg 88%
08:00 +27°C° 0 mm 1 mps 750 mmHg 78%
09:00 +30°C° 0 mm 2 mps 750 mmHg 67%
10:00 +32°C° 0 mm 2 mps 750 mmHg 59%
11:00 +35°C° 0 mm 2 mps 750 mmHg 50%
12:00 +37°C° 0 mm 2 mps 749 mmHg 41%
13:00 +37°C° 0 mm 2 mps 748 mmHg 39%
14:00 +38°C° 0 mm 2 mps 747 mmHg 36%
15:00 +38°C° 0 mm 2 mps 746 mmHg 34%
16:00 +37°C° 0 mm 2 mps 746 mmHg 39%
17:00 +35°C° 0 mm 2 mps 747 mmHg 43%
18:00 +32°C° 0 mm 2 mps 747 mmHg 48%
19:00 +30°C° 0 mm 2 mps 747 mmHg 57%
20:00 +28°C° 0 mm 2 mps 748 mmHg 66%
21:00 +26°C° 0 mm 2 mps 749 mmHg 76%
22:00 +25°C° 0 mm 1 mps 749 mmHg 83%
23:00 +24°C° 0 mm 1 mps 749 mmHg 90%

Mañana, 19 Septiembre, Sábado

Tiempo Temperatura Precipitaciones Viento Presión Humedad
00:00 +23°C° 0 mm 1 mps 749 mmHg 97%
01:00 +23°C° 0 mm 1 mps 749 mmHg 98%
02:00 +23°C° 0 mm 1 mps 748 mmHg 99%
03:00 +21°C° 0 mm 0 mps 748 mmHg 99%
04:00 +21°C° 0 mm 0 mps 748 mmHg 99%
05:00 +21°C° 0 mm 0 mps 748 mmHg 99%
06:00 +21°C° 0 mm 0 mps 748 mmHg 99%
07:00 +25°C° 0 mm 1 mps 749 mmHg 92%
08:00 +26°C° 0 mm 1 mps 749 mmHg 86%
09:00 +28°C° 0 mm 1 mps 750 mmHg 79%
10:00 +30°C° 0 mm 2 mps 750 mmHg 66%
11:00 +34°C° 0 mm 2 mps 750 mmHg 53%
12:00 +37°C° 0 mm 2 mps 749 mmHg 40%
13:00 +37°C° 0 mm 2 mps 748 mmHg 37%
14:00 +38°C° 0 mm 2 mps 747 mmHg 34%
15:00 +39°C° 0 mm 2 mps 746 mmHg 32%
16:00 +37°C° 0 mm 2 mps 746 mmHg 37%
17:00 +35°C° 0 mm 2 mps 747 mmHg 43%
18:00 +32°C° 0 mm 2 mps 747 mmHg 49%
19:00 +31°C° 0 mm 2 mps 747 mmHg 57%
20:00 +29°C° 0 mm 2 mps 748 mmHg 64%
21:00 +27°C° 0 mm 2 mps 749 mmHg 72%
22:00 +26°C° 0 mm 2 mps 749 mmHg 80%
23:00 +25°C° 0 mm 1 mps 749 mmHg 88%

Pasado mañana, 20 Septiembre, Domingo

Tiempo Temperatura Precipitaciones Viento Presión Humedad
00:00 +25°C° 0 mm 1 mps 749 mmHg 96%
01:00 +24°C° 0 mm 1 mps 749 mmHg 97%
02:00 +24°C° 0 mm 1 mps 748 mmHg 98%
03:00 +22°C° 0 mm 0 mps 747 mmHg 99%
04:00 +22°C° 0 mm 0 mps 748 mmHg 99%
05:00 +22°C° 0 mm 0 mps 748 mmHg 99%
06:00 +22°C° 0 mm 0 mps 748 mmHg 99%
07:00 +26°C° 0 mm 1 mps 749 mmHg 90%
08:00 +28°C° 0 mm 1 mps 749 mmHg 80%
09:00 +30°C° 0 mm 2 mps 750 mmHg 70%
10:00 +32°C° 0 mm 2 mps 750 mmHg 61%
11:00 +35°C° 0 mm 2 mps 749 mmHg 52%
12:00 +37°C° 0 mm 2 mps 749 mmHg 43%
13:00 +37°C° 0 mm 1 mps 748 mmHg 40%
14:00 +37°C° 0 mm 1 mps 747 mmHg 38%
15:00 +39°C° 0 mm 1 mps 746 mmHg 35%
16:00 +36°C° 0 mm 1 mps 746 mmHg 43%
17:00 +34°C° 0 mm 1 mps 746 mmHg 50%
18:00 +32°C° 0 mm 2 mps 747 mmHg 57%
19:00 +30°C° 0.4 mm 2 mps 747 mmHg 68%
20:00 +28°C° 0.4 mm 2 mps 747 mmHg 79%
21:00 +26°C° 0.4 mm 2 mps 748 mmHg 90%
22:00 +26°C° 0.2 mm 1 mps 748 mmHg 92%
23:00 +25°C° 0.2 mm 1 mps 748 mmHg 95%

21 Septiembre, Lunes

Tiempo Temperatura Precipitaciones Viento Presión Humedad
00:00 +24°C° 0.2 mm 1 mps 749 mmHg 98%
01:00 +24°C° 0 mm 1 mps 748 mmHg 99%
02:00 +22°C° 0 mm 0 mps 748 mmHg 99%
03:00 +22°C° 0 mm 0 mps 747 mmHg 99%
04:00 +22°C° 0 mm 0 mps 748 mmHg 99%
05:00 +22°C° 0 mm 0 mps 748 mmHg 99%
06:00 +23°C° 0 mm 0 mps 748 mmHg 99%
07:00 +24°C° 0 mm 0 mps 748 mmHg 93%
08:00 +27°C° 0 mm 1 mps 749 mmHg 88%
09:00 +29°C° 0 mm 1 mps 750 mmHg 82%
10:00 +31°C° 0 mm 1 mps 749 mmHg 69%
11:00 +34°C° 0 mm 1 mps 749 mmHg 56%
12:00 +36°C° 0 mm 1 mps 749 mmHg 43%
13:00 +37°C° 0 mm 1 mps 748 mmHg 40%
14:00 +39°C° 0 mm 2 mps 747 mmHg 37%
15:00 +40°C° 0 mm 2 mps 746 mmHg 34%
16:00 +38°C° 0 mm 2 mps 746 mmHg 41%
17:00 +36°C° 0 mm 2 mps 746 mmHg 49%
18:00 +34°C° 0 mm 2 mps 746 mmHg 56%
19:00 +31°C° 0 mm 2 mps 747 mmHg 64%
20:00 +29°C° 0 mm 2 mps 748 mmHg 72%
21:00 +27°C° 0 mm 2 mps 748 mmHg 80%
22:00 +26°C° 0 mm 2 mps 748 mmHg 85%
23:00 +26°C° 0 mm 1 mps 748 mmHg 90%

22 Septiembre, Martes

Tiempo Temperatura Precipitaciones Viento Presión Humedad
00:00 +25°C° 0 mm 1 mps 749 mmHg 94%
01:00 +25°C° 0 mm 1 mps 748 mmHg 95%
02:00 +24°C° 0 mm 1 mps 748 mmHg 96%
03:00 +24°C° 0 mm 1 mps 747 mmHg 98%
04:00 +22°C° 0 mm 0 mps 748 mmHg 98%
05:00 +22°C° 0 mm 0 mps 748 mmHg 98%
06:00 +22°C° 0 mm 0 mps 748 mmHg 99%
07:00 +26°C° 0 mm 1 mps 749 mmHg 88%
08:00 +28°C° 0 mm 1 mps 749 mmHg 77%
09:00 +30°C° 0 mm 2 mps 750 mmHg 66%
10:00 +32°C° 0 mm 2 mps 750 mmHg 59%
11:00 +35°C° 0 mm 2 mps 749 mmHg 52%
12:00 +37°C° 0 mm 2 mps 749 mmHg 45%
13:00 +37°C° 0 mm 2 mps 749 mmHg 42%
14:00 +38°C° 0 mm 2 mps 748 mmHg 39%
15:00 +39°C° 0 mm 3 mps 747 mmHg 36%
16:00 +37°C° 0 mm 3 mps 747 mmHg 41%
17:00 +35°C° 0 mm 2 mps 747 mmHg 46%
18:00 +32°C° 0 mm 2 mps 747 mmHg 51%
19:00 +30°C° 0 mm 2 mps 748 mmHg 60%
20:00 +28°C° 0 mm 2 mps 748 mmHg 70%
21:00 +26°C° 0 mm 2 mps 749 mmHg 79%
22:00 +26°C° 0 mm 2 mps 749 mmHg 84%
23:00 +25°C° 0 mm 1 mps 749 mmHg 90%

23 Septiembre, Miércoles

Tiempo Temperatura Precipitaciones Viento Presión Humedad
00:00 +24°C° 0 mm 1 mps 749 mmHg 96%
01:00 +23°C° 0 mm 1 mps 749 mmHg 97%
02:00 +23°C° 0 mm 1 mps 748 mmHg 98%
03:00 +21°C° 0 mm 0 mps 748 mmHg 99%
04:00 +21°C° 0 mm 0 mps 748 mmHg 99%
05:00 +21°C° 0 mm 0 mps 748 mmHg 99%
06:00 +21°C° 0 mm 0 mps 749 mmHg 99%
07:00 +25°C° 0 mm 1 mps 749 mmHg 89%
08:00 +27°C° 0 mm 2 mps 750 mmHg 78%
09:00 +30°C° 0 mm 2 mps 751 mmHg 68%
10:00 +32°C° 0 mm 2 mps 750 mmHg 60%
11:00 +35°C° 0 mm 2 mps 750 mmHg 52%
12:00 +37°C° 0 mm 2 mps 750 mmHg 43%
13:00 +37°C° 0 mm 2 mps 749 mmHg 40%
14:00 +38°C° 0 mm 3 mps 748 mmHg 36%
15:00 +39°C° 0 mm 3 mps 747 mmHg 33%
16:00 +37°C° 0 mm 3 mps 747 mmHg 39%
17:00 +35°C° 0 mm 2 mps 747 mmHg 45%
18:00 +32°C° 0 mm 2 mps 747 mmHg 50%
19:00 +31°C° 0 mm 2 mps 748 mmHg 59%
20:00 +29°C° 0 mm 2 mps 749 mmHg 68%
21:00 +27°C° 0 mm 2 mps 749 mmHg 77%
22:00 +27°C° 0 mm 2 mps 750 mmHg 83%
23:00 +26°C° 0 mm 1 mps 750 mmHg 89%
Mostrar más